AFR56RE EDDF-LFPG

Flight info

Callsign AFR56RE
Flight time 0h 58m
Altitude 22000
Route SOBRA1F SOBRA Y180 DIK UN857 TOLVU DCT RAPOR DCT VEDUS
Aircraft E190/M-SDE3GILORVW/S

Departure

Time 2026-05-05 10:25
Airport Frankfurt Main Airport (EDDF)

Arrival

Time 2026-05-05 11:23
Airport Charles de Gaulle International Airport (LFPG)
Time Latitude Longitude Altitude Speed Heading
2026-05-05 09:40 50.05051 8.58654 358 ft 0 kts 320°
2026-05-05 10:07 50.05047 8.58659 358 ft 4 kts 320°
2026-05-05 10:07 50.05027 8.58685 360 ft 3 kts 320°
2026-05-05 10:07 50.05012 8.58706 361 ft 4 kts 327°
2026-05-05 10:08 50.04992 8.58719 358 ft 4 kts 310°
2026-05-05 10:08 50.04991 8.58746 358 ft 4 kts 249°
2026-05-05 10:08 50.04999 8.58779 360 ft 1 kts 249°
2026-05-05 10:17 50.04990 8.58745 358 ft 7 kts 249°
2026-05-05 10:17 50.04976 8.58685 362 ft 10 kts 250°
2026-05-05 10:18 50.04938 8.58524 361 ft 13 kts 249°
2026-05-05 10:18 50.04903 8.58377 362 ft 16 kts 250°
2026-05-05 10:18 50.04862 8.58208 359 ft 18 kts 249°
2026-05-05 10:18 50.04832 8.58080 357 ft 20 kts 250°
2026-05-05 10:19 50.04766 8.57929 359 ft 17 kts 195°
2026-05-05 10:19 50.04686 8.57810 363 ft 18 kts 250°
2026-05-05 10:19 50.04641 8.57618 360 ft 20 kts 249°
2026-05-05 10:19 50.04588 8.57401 361 ft 22 kts 249°
2026-05-05 10:20 50.04535 8.57174 358 ft 24 kts 250°
2026-05-05 10:20 50.04477 8.56930 361 ft 24 kts 250°
2026-05-05 10:20 50.04416 8.56678 358 ft 26 kts 250°
2026-05-05 10:20 50.04351 8.56404 360 ft 28 kts 250°
2026-05-05 10:21 50.04282 8.56114 356 ft 30 kts 249°
2026-05-05 10:21 50.04215 8.55842 354 ft 25 kts 250°
2026-05-05 10:21 50.04154 8.55581 355 ft 26 kts 250°
2026-05-05 10:21 50.04087 8.55306 354 ft 27 kts 250°
2026-05-05 10:22 50.04020 8.55022 357 ft 28 kts 250°
2026-05-05 10:22 50.03949 8.54725 353 ft 30 kts 249°
2026-05-05 10:22 50.03872 8.54405 349 ft 31 kts 245°
2026-05-05 10:22 50.03784 8.54152 349 ft 27 kts 249°
2026-05-05 10:23 50.03715 8.53868 347 ft 29 kts 249°
2026-05-05 10:23 50.03644 8.53576 336 ft 28 kts 248°
2026-05-05 10:23 50.03570 8.53276 336 ft 30 kts 250°
2026-05-05 10:23 50.03501 8.52976 332 ft 31 kts 249°
2026-05-05 10:24 50.03424 8.52687 333 ft 23 kts 251°
2026-05-05 10:24 50.03293 8.52595 331 ft 23 kts 180°
2026-05-05 10:24 50.03007 8.52598 333 ft 73 kts 178°
2026-05-05 10:24 50.02279 8.52612 334 ft 141 kts 179°
2026-05-05 10:25 50.01130 8.52615 572 ft 183 kts 180°
2026-05-05 10:25 49.99771 8.52595 1231 ft 205 kts 180°
2026-05-05 10:25 49.98298 8.52563 2191 ft 213 kts 181°
2026-05-05 10:25 49.96779 8.52553 3165 ft 219 kts 178°
2026-05-05 10:26 49.95302 8.52765 3859 ft 218 kts 173°
2026-05-05 10:26 49.93788 8.53037 3960 ft 218 kts 174°
2026-05-05 10:26 49.92289 8.53232 3979 ft 216 kts 176°
2026-05-05 10:26 49.90791 8.53336 3987 ft 215 kts 178°
2026-05-05 10:27 49.89301 8.53402 3994 ft 215 kts 179°
2026-05-05 10:27 49.87809 8.53448 4007 ft 214 kts 183°
2026-05-05 10:27 49.86391 8.52937 4442 ft 211 kts 198°
2026-05-05 10:27 49.84987 8.52188 4867 ft 216 kts 199°
2026-05-05 10:28 49.83533 8.51381 5321 ft 234 kts 199°
2026-05-05 10:28 49.81903 8.50457 5792 ft 255 kts 200°
2026-05-05 10:28 49.80206 8.49504 6287 ft 263 kts 200°
2026-05-05 10:28 49.78457 8.48518 6721 ft 267 kts 201°
2026-05-05 10:29 49.76887 8.47039 7137 ft 271 kts 224°
2026-05-05 10:29 49.75912 8.44555 7590 ft 275 kts 251°
2026-05-05 10:29 49.75779 8.41588 8037 ft 281 kts 277°
2026-05-05 10:29 49.76170 8.38610 8505 ft 285 kts 281°
2026-05-05 10:30 49.76646 8.35623 8983 ft 286 kts 283°
2026-05-05 10:30 49.77151 8.32627 9439 ft 290 kts 283°
2026-05-05 10:30 49.77678 8.29616 9910 ft 291 kts 283°
2026-05-05 10:30 49.78233 8.26531 10334 ft 308 kts 284°
2026-05-05 10:31 49.78843 8.23255 10795 ft 325 kts 284°
2026-05-05 10:31 49.79461 8.19717 11244 ft 336 kts 282°
2026-05-05 10:31 49.80017 8.16169 11693 ft 342 kts 281°
2026-05-05 10:31 49.80571 8.12581 12165 ft 345 kts 282°
2026-05-05 10:32 49.81139 8.08959 12615 ft 347 kts 282°
2026-05-05 10:32 49.81715 8.05316 13093 ft 350 kts 282°
2026-05-05 10:32 49.82294 8.01643 13599 ft 351 kts 282°
2026-05-05 10:32 49.82874 7.97955 14289 ft 355 kts 281°
2026-05-05 10:33 49.83455 7.94266 14934 ft 358 kts 281°
2026-05-05 10:33 49.84057 7.90441 15650 ft 364 kts 281°
2026-05-05 10:33 49.84655 7.86624 16336 ft 367 kts 281°
2026-05-05 10:33 49.85260 7.82756 17079 ft 371 kts 281°
2026-05-05 10:34 49.85871 7.78849 17791 ft 376 kts 281°
2026-05-05 10:34 49.86491 7.74886 18521 ft 380 kts 281°
2026-05-05 10:34 49.87121 7.70896 19168 ft 384 kts 281°
2026-05-05 10:34 49.87755 7.66859 19876 ft 387 kts 281°
2026-05-05 10:35 49.88388 7.62772 20549 ft 392 kts 281°
2026-05-05 10:35 49.89022 7.58660 21278 ft 393 kts 281°
2026-05-05 10:35 49.89659 7.54510 21841 ft 399 kts 281°
2026-05-05 10:35 49.90287 7.50429 21855 ft 378 kts 281°
2026-05-05 10:36 49.90884 7.46560 21871 ft 362 kts 281°
2026-05-05 10:36 49.91494 7.42559 21886 ft 359 kts 280°
2026-05-05 10:36 49.92077 7.38721 21906 ft 360 kts 280°
2026-05-05 10:36 49.92629 7.35072 21924 ft 361 kts 280°
2026-05-05 10:37 49.93211 7.31229 21930 ft 361 kts 280°
2026-05-05 10:37 49.93791 7.27396 21879 ft 361 kts 280°
2026-05-05 10:37 49.94173 7.24869 21886 ft 360 kts 280°
2026-05-05 10:37 49.94761 7.20978 21887 ft 361 kts 280°
2026-05-05 10:38 49.95332 7.17181 21891 ft 361 kts 280°
2026-05-05 10:38 49.95900 7.13384 21887 ft 361 kts 280°
2026-05-05 10:38 49.96468 7.09589 21884 ft 361 kts 280°
2026-05-05 10:38 49.97036 7.05778 21883 ft 361 kts 280°
2026-05-05 10:39 49.97601 7.01974 21876 ft 362 kts 280°
2026-05-05 10:39 49.98167 6.98168 21872 ft 362 kts 280°
2026-05-05 10:39 49.98740 6.94307 21852 ft 362 kts 280°
2026-05-05 10:39 49.99216 6.90426 21854 ft 359 kts 271°
2026-05-05 10:40 49.99229 6.86561 21878 ft 357 kts 265°
2026-05-05 10:40 49.99118 6.82685 21842 ft 358 kts 264°
2026-05-05 10:40 49.98990 6.78804 21847 ft 357 kts 264°
2026-05-05 10:40 49.98869 6.74944 21851 ft 357 kts 264°
2026-05-05 10:41 49.98752 6.71093 21848 ft 357 kts 264°
2026-05-05 10:41 49.98635 6.67237 21853 ft 358 kts 264°
2026-05-05 10:41 49.98516 6.63374 21854 ft 357 kts 264°
2026-05-05 10:41 49.98396 6.59522 21856 ft 357 kts 264°
2026-05-05 10:42 49.97195 6.52164 21870 ft 352 kts 244°
2026-05-05 10:42 49.96222 6.48676 21842 ft 352 kts 244°
2026-05-05 10:42 49.95239 6.45197 21851 ft 351 kts 244°
2026-05-05 10:43 49.94259 6.41716 21846 ft 352 kts 244°
2026-05-05 10:43 49.93283 6.38235 21842 ft 352 kts 244°
2026-05-05 10:43 49.92306 6.34758 21846 ft 352 kts 244°
2026-05-05 10:43 49.91326 6.31274 21819 ft 353 kts 244°
2026-05-05 10:44 49.90347 6.27798 21831 ft 352 kts 244°
2026-05-05 10:44 49.89338 6.24356 21850 ft 350 kts 242°
2026-05-05 10:44 49.88318 6.20983 21858 ft 351 kts 243°
2026-05-05 10:44 49.87353 6.17506 21853 ft 351 kts 244°
2026-05-05 10:45 49.86392 6.14026 21842 ft 351 kts 242°
2026-05-05 10:45 49.85144 6.10802 21873 ft 348 kts 233°
2026-05-05 10:45 49.83733 6.07681 21846 ft 348 kts 232°
2026-05-05 10:45 49.82324 6.04637 21856 ft 348 kts 232°
2026-05-05 10:46 49.80915 6.01589 21860 ft 348 kts 232°
2026-05-05 10:46 49.79507 5.98536 21847 ft 348 kts 232°
2026-05-05 10:46 49.78099 5.95474 21844 ft 348 kts 232°
2026-05-05 10:46 49.76695 5.92424 21841 ft 349 kts 232°
2026-05-05 10:47 49.75298 5.89390 21847 ft 349 kts 232°
2026-05-05 10:47 49.74032 5.86154 21879 ft 351 kts 244°
2026-05-05 10:47 49.73137 5.82620 21879 ft 354 kts 247°
2026-05-05 10:47 49.72313 5.79050 21850 ft 352 kts 248°
2026-05-05 10:48 49.71496 5.75472 21839 ft 352 kts 248°
2026-05-05 10:48 49.70668 5.71887 21841 ft 352 kts 248°
2026-05-05 10:48 49.69841 5.68331 21841 ft 352 kts 247°
2026-05-05 10:48 49.69013 5.64789 21851 ft 352 kts 247°
2026-05-05 10:49 49.68191 5.61277 21857 ft 352 kts 247°
2026-05-05 10:49 49.67349 5.57688 21858 ft 351 kts 247°
2026-05-05 10:49 49.66516 5.54140 21851 ft 351 kts 247°
2026-05-05 10:49 49.65683 5.50602 21853 ft 351 kts 247°
2026-05-05 10:50 49.64800 5.46862 21854 ft 351 kts 247°
2026-05-05 10:50 49.64012 5.43526 21849 ft 351 kts 247°
2026-05-05 10:50 49.63171 5.39970 21853 ft 352 kts 247°
2026-05-05 10:50 49.62333 5.36434 21854 ft 352 kts 247°
2026-05-05 10:51 49.61542 5.32846 21858 ft 353 kts 249°
2026-05-05 10:51 49.60795 5.29243 21854 ft 353 kts 249°
2026-05-05 10:51 49.60033 5.25594 21853 ft 353 kts 249°
2026-05-05 10:51 49.59348 5.21997 21861 ft 355 kts 256°
2026-05-05 10:52 49.59146 5.18179 21863 ft 360 kts 266°
2026-05-05 10:52 49.59166 5.14317 21859 ft 361 kts 268°
2026-05-05 10:52 49.59215 5.10330 21858 ft 361 kts 268°
2026-05-05 10:52 49.59255 5.06731 21853 ft 361 kts 268°
2026-05-05 10:53 49.59293 5.02652 21855 ft 361 kts 268°
2026-05-05 10:53 49.59327 4.98776 21854 ft 362 kts 268°
2026-05-05 10:53 49.59359 4.94955 21854 ft 362 kts 268°
2026-05-05 10:53 49.59388 4.91073 21850 ft 362 kts 268°
2026-05-05 10:54 49.59414 4.87199 21851 ft 362 kts 268°
2026-05-05 10:54 49.59439 4.83322 21846 ft 362 kts 268°
2026-05-05 10:54 49.59464 4.79444 21852 ft 362 kts 268°
2026-05-05 10:54 49.59487 4.75506 21853 ft 362 kts 268°
2026-05-05 10:55 49.59505 4.71623 21855 ft 362 kts 268°
2026-05-05 10:55 49.59523 4.67742 21857 ft 362 kts 268°
2026-05-05 10:55 49.59541 4.63857 21851 ft 363 kts 268°
2026-05-05 10:55 49.59557 4.59966 21854 ft 363 kts 268°
2026-05-05 10:56 49.59571 4.56072 21857 ft 363 kts 268°
2026-05-05 10:56 49.59584 4.52181 21856 ft 363 kts 268°
2026-05-05 10:56 49.59596 4.48291 21855 ft 364 kts 268°
2026-05-05 10:56 49.59607 4.44387 21860 ft 364 kts 268°
2026-05-05 10:57 49.59616 4.40487 21861 ft 364 kts 268°
2026-05-05 10:57 49.59625 4.36584 21845 ft 364 kts 268°
2026-05-05 10:57 49.59632 4.32665 21841 ft 364 kts 268°
2026-05-05 10:57 49.59636 4.28764 21490 ft 366 kts 268°
2026-05-05 10:58 49.59642 4.24856 21184 ft 363 kts 268°
2026-05-05 10:58 49.59647 4.20872 20860 ft 361 kts 268°
2026-05-05 10:58 49.59647 4.17024 20550 ft 359 kts 268°
2026-05-05 10:58 49.59645 4.13187 20263 ft 357 kts 268°
2026-05-05 10:59 49.59627 4.09372 19953 ft 355 kts 264°
2026-05-05 10:59 49.59098 4.05705 19656 ft 349 kts 245°
2026-05-05 10:59 49.57904 4.02479 19383 ft 345 kts 234°
2026-05-05 10:59 49.56574 3.99402 19080 ft 345 kts 234°
2026-05-05 11:00 49.55252 3.96333 18804 ft 343 kts 234°
2026-05-05 11:00 49.53952 3.93261 18526 ft 341 kts 234°
2026-05-05 11:00 49.52663 3.90200 18231 ft 340 kts 234°
2026-05-05 11:00 49.51383 3.87148 17920 ft 339 kts 234°
2026-05-05 11:01 49.50185 3.84282 17639 ft 337 kts 234°
2026-05-05 11:01 49.48907 3.81251 17310 ft 337 kts 234°
2026-05-05 11:01 49.47660 3.78216 16978 ft 336 kts 240°
2026-05-05 11:01 49.46879 3.74823 16678 ft 338 kts 253°
2026-05-05 11:02 49.46322 3.71309 16380 ft 337 kts 254°
2026-05-05 11:02 49.45753 3.67814 16058 ft 336 kts 254°
2026-05-05 11:02 49.45184 3.64359 15747 ft 330 kts 253°
2026-05-05 11:02 49.44621 3.60973 15457 ft 324 kts 254°
2026-05-05 11:03 49.44061 3.57634 15154 ft 322 kts 253°
2026-05-05 11:03 49.43689 3.55435 14952 ft 321 kts 253°
2026-05-05 11:03 49.43128 3.52124 14656 ft 320 kts 254°
2026-05-05 11:03 49.42566 3.48822 14382 ft 319 kts 254°
2026-05-05 11:04 49.42005 3.45530 14098 ft 318 kts 254°
2026-05-05 11:04 49.41348 3.42304 13812 ft 318 kts 246°
2026-05-05 11:04 49.40451 3.39132 13500 ft 319 kts 245°
2026-05-05 11:04 49.39573 3.36026 13178 ft 315 kts 245°
2026-05-05 11:05 49.38703 3.32900 12891 ft 312 kts 246°
2026-05-05 11:05 49.37887 3.29926 13451 ft 295 kts 246°
2026-05-05 11:05 49.37145 3.27191 15081 ft 269 kts 245°
2026-05-05 11:05 49.36389 3.24409 15214 ft 302 kts 245°
2026-05-05 11:06 49.35564 3.21371 14882 ft 313 kts 246°
2026-05-05 11:06 49.34716 3.18225 14588 ft 318 kts 246°
2026-05-05 11:06 49.33879 3.15116 14304 ft 320 kts 246°
2026-05-05 11:06 49.33030 3.11971 14011 ft 320 kts 246°
2026-05-05 11:07 49.32178 3.08815 13740 ft 319 kts 246°
2026-05-05 11:07 49.31324 3.05662 13419 ft 318 kts 246°
2026-05-05 11:07 49.30484 3.02564 13092 ft 317 kts 246°
2026-05-05 11:07 49.29640 2.99454 12786 ft 315 kts 246°
2026-05-05 11:08 49.28797 2.96351 12450 ft 315 kts 246°
2026-05-05 11:08 49.27935 2.93181 12145 ft 313 kts 246°
2026-05-05 11:08 49.27119 2.90191 11844 ft 312 kts 246°
2026-05-05 11:08 49.26285 2.87132 11535 ft 311 kts 246°
2026-05-05 11:09 49.25452 2.84084 11244 ft 309 kts 246°
2026-05-05 11:09 49.24607 2.80999 10938 ft 308 kts 246°
2026-05-05 11:09 49.23802 2.78061 10901 ft 301 kts 246°
2026-05-05 11:09 49.22982 2.75070 10871 ft 305 kts 246°
2026-05-05 11:10 49.22146 2.72026 10869 ft 308 kts 246°
2026-05-05 11:10 49.21317 2.69008 10872 ft 308 kts 246°
2026-05-05 11:10 49.20497 2.66021 10904 ft 309 kts 246°
2026-05-05 11:10 49.19658 2.62980 10844 ft 310 kts 246°
2026-05-05 11:11 49.18821 2.59957 10849 ft 309 kts 246°
2026-05-05 11:11 49.17977 2.56914 10804 ft 302 kts 245°
2026-05-05 11:11 49.16962 2.54208 10497 ft 294 kts 232°
2026-05-05 11:11 49.15725 2.51767 10187 ft 288 kts 230°
2026-05-05 11:12 49.14518 2.49369 9908 ft 282 kts 231°
2026-05-05 11:12 49.13368 2.46980 9589 ft 277 kts 233°
2026-05-05 11:12 49.12257 2.44602 9277 ft 273 kts 233°
2026-05-05 11:12 49.11170 2.42251 8953 ft 269 kts 233°
2026-05-05 11:13 49.10100 2.39927 8639 ft 266 kts 233°
2026-05-05 11:13 49.09041 2.37629 8341 ft 263 kts 233°
2026-05-05 11:13 49.07995 2.35359 8024 ft 261 kts 233°
2026-05-05 11:13 49.06960 2.33114 7730 ft 258 kts 233°
2026-05-05 11:14 49.05930 2.30880 7415 ft 256 kts 233°
2026-05-05 11:14 49.04912 2.28674 7127 ft 254 kts 233°
2026-05-05 11:14 49.03899 2.26480 6835 ft 252 kts 233°
2026-05-05 11:14 49.02810 2.24434 6567 ft 242 kts 219°
2026-05-05 11:15 49.01414 2.23069 6292 ft 229 kts 205°
2026-05-05 11:15 49.00054 2.22067 5999 ft 213 kts 201°
2026-05-05 11:15 48.98750 2.21136 5673 ft 202 kts 202°
2026-05-05 11:15 48.97514 2.20225 5336 ft 192 kts 202°
2026-05-05 11:16 48.96284 2.19634 5019 ft 181 kts 183°
2026-05-05 11:16 48.95084 2.19762 4698 ft 168 kts 157°
2026-05-05 11:16 48.94106 2.20625 4380 ft 156 kts 132°
2026-05-05 11:16 48.93500 2.21933 4052 ft 149 kts 109°
2026-05-05 11:17 48.93286 2.23431 3772 ft 144 kts 88°
2026-05-05 11:17 48.93440 2.24924 3497 ft 143 kts 71°
2026-05-05 11:17 48.93749 2.26358 3270 ft 142 kts 70°
2026-05-05 11:17 48.94051 2.27789 3066 ft 143 kts 71°
2026-05-05 11:18 48.94352 2.29246 2858 ft 145 kts 70°
2026-05-05 11:18 48.94675 2.30682 2550 ft 148 kts 64°
2026-05-05 11:18 48.95204 2.32087 2089 ft 150 kts 53°
2026-05-05 11:18 48.95792 2.33355 1776 ft 148 kts 52°
2026-05-05 11:19 48.96409 2.34584 1547 ft 139 kts 50°
2026-05-05 11:19 48.96974 2.35707 1495 ft 133 kts 49°
2026-05-05 11:19 48.97578 2.36822 1552 ft 136 kts 48°
2026-05-05 11:19 48.98116 2.38029 1537 ft 141 kts 60°
2026-05-05 11:20 48.98509 2.39365 1673 ft 135 kts 66°
2026-05-05 11:20 48.98805 2.40733 1751 ft 137 kts 70°
2026-05-05 11:20 48.99044 2.42128 1586 ft 133 kts 75°
2026-05-05 11:20 48.99099 2.43520 1452 ft 129 kts 87°
2026-05-05 11:21 48.98988 2.44893 1382 ft 131 kts 96°
2026-05-05 11:21 48.98858 2.46229 1404 ft 129 kts 90°
2026-05-05 11:21 48.98753 2.47614 1347 ft 133 kts 87°
2026-05-05 11:21 48.98806 2.48987 1227 ft 129 kts 79°
2026-05-05 11:22 48.98893 2.50326 1159 ft 129 kts 79°
2026-05-05 11:22 48.98991 2.51719 995 ft 134 kts 80°
2026-05-05 11:22 48.99080 2.53089 861 ft 127 kts 80°
2026-05-05 11:22 48.99162 2.54442 675 ft 132 kts 79°
2026-05-05 11:23 48.99250 2.55838 489 ft 132 kts 81°
2026-05-05 11:23 48.99326 2.57186 352 ft 121 kts 81°
2026-05-05 11:23 48.99389 2.58325 328 ft 93 kts 85°
2026-05-05 11:23 48.99436 2.59119 322 ft 49 kts 74°
2026-05-05 11:24 48.99536 2.59469 324 ft 34 kts 65°
2026-05-05 11:24 48.99631 2.59699 324 ft 19 kts
2026-05-05 11:24 48.99765 2.59687 322 ft 21 kts 353°
2026-05-05 11:24 48.99915 2.59669 324 ft 21 kts 356°
2026-05-05 11:25 49.00056 2.59645 324 ft 19 kts 360°
2026-05-05 11:25 49.00180 2.59636 332 ft 18 kts 355°
2026-05-05 11:25 49.00275 2.59659 331 ft 8 kts 63°
2026-05-05 11:25 49.00284 2.59762 333 ft 11 kts 86°
2026-05-05 11:26 49.00290 2.59894 330 ft 14 kts 85°
2026-05-05 11:26 49.00299 2.60053 331 ft 16 kts 84°
2026-05-05 11:26 49.00310 2.60238 333 ft 19 kts 85°
2026-05-05 11:26 49.00320 2.60445 331 ft 17 kts 85°
2026-05-05 11:27 49.00358 2.60480 333 ft 6 kts 339°
2026-05-05 11:27 49.00396 2.60430 333 ft 8 kts 315°
2026-05-05 11:27 49.00409 2.60410 330 ft 0 kts 316°
2026-05-05 11:38 49.00409 2.60411 333 ft 0 kts 316°
2026-05-05 12:07 49.00409 2.60412 333 ft 0 kts 316°
2026-05-05 12:20 49.00408 2.60412 333 ft 0 kts 316°